Location: Archemont
(49.1579°N, 1.7598°E)
Time: 04:51:40
(UTC+00:00)

BlueWalker 3 - Pass Details

Date: 07 March 2024
Orbit: 485 x 495 km, 53.2° (Epoch: 24 April)

Event Time Altitude Azimuth Distance (km) Brightness Sun altitude
Rises 18:43:08 0° 288° (WNW) 2,562 7.4 -10.1°
Reaches altitude 10° 18:45:55 10° 266° (W) 1,674 6.1 -10.6°
Maximum altitude 18:48:20 16° 227° (SW) 1,323 4.6 -10.9°
Drops below altitude 10° 18:50:43 10° 187° (S) 1,662 4.6 -11.3°
Enters shadow 18:54:35 -3° 161° (SSE) 2,940 5.6 -12.0°
